カタログに戻る

BALKAN-3

運用中科学SSO
NORAD 69903·PAYLOAD·🇧🇬 Bulgaria

打ち上げ Jul 7, 2026 から Vandenberg Space Force Base

Loading…

次のパス (今後24時間)

TLE

最新Source: Space-Track

元期: Sep 14, 2026, 11:06 UTC

1 69903U 26156AL  26257.46279323  .00001746  00000-0  18149-3 0  9999
2 69903  97.7495 156.7205 0001753 280.9918  79.1103 14.91171207 10307

AllMySatでBALKAN-3をリアルタイム追跡

Download on the App Store